{"data":{"norad_id":59674,"epoch":"2026-05-25T04:28:34.660128Z","epoch_age_seconds":73119,"freshness":"FRESH","line1":"1 59674U 24084W   26145.18651227  .00001989  00000+0  81750-4 0  9990","line2":"2 59674  43.0004 326.2115 0001469 271.3855  88.6828 15.27587610116117","mean_motion":15.2758761,"eccentricity":0.0001469,"inclination_deg":43.0004,"raan_deg":326.2115,"arg_perigee_deg":271.3855,"mean_anomaly_deg":88.6828,"bstar":8.175e-5,"rev_number":11611,"period_min":94.266279103953,"perigee_km":482.01840416647,"apogee_km":484.03421394667,"semimajor_km":6861.1633090566,"source":"CELESTRAK","updated_at":"2026-05-25T13:38:19.021995Z"}}